Find Starlink 5226

NORAD ID: 54056 Int'l Des: 2022-136 Owner: SPXS Country: US Constellation: starlink operational
LEOCIRCULAR

当前视图

正在加载3D地球...

About Starlink 5226

Starlink 5226 (NORAD 54056) is a starlink constellation satellite (v1.5) launched Oct 20, 2022 by SPXS of US. It operates in LEO, CIRCULAR orbit with a mass of 305.00 kg.

关于 Starlink 5226

正在加载描述...

即将过境

Passes for default location (London). Set your location on the main map for personalized predictions.

高度历史

Loading altitude history...

两行轨道根数

1 54056U 22136F 26168.53796030 .00000856 00000-0 71886-4 0 9993
2 54056 53.1601 255.3714 0001169 87.6934 272.4191 15.08834546201923
Epoch: Jun 17, 2026 • Age: 22 hours

当前状态

高度 555.3 km
速度 7.58 km/s
星下点 -43.96°S, 51°E
发射日期 Oct 20, 2022
运行时间 3.6 years
类型 internet

技术详情

分类 Payload
质量 305.00 kg
干质量 290.00 kg
总质量 305.00 kg
长度 0.20 m
直径 2.80 m
跨度 9.00 m
形状 Box + pan
制造商 SPXS
平台类型 Starlink
阶段状态 In Orbit
所有者/国家 SPXS/US

Most Searched